Tracking 35280 objects as of 7-Sep-2026
HD Live streaming from Space Station
objects crossing your sky now

M-3S2 R/B(1)


M-3S2 R/B(1) is no longer on orbit


NORAD ID: 15968
Int'l Code: 1985-073B
Launch date: August 18, 1985
Source: Japan (JPN)
Launch site: KAGOSHIMA SPACE CENTER UNIVERSITY OF TOKYO (KSCUT)
Decay date: 1985-11-13

Note: This is a ROCKET BODY
Your satellite tracking list
Your tracking list is empty




NASA's NSSDC Master Catalog

Two Line Element Set (TLE):
1 15968U 85073  B 85317.40237586  .23820521 -21657-4 +19915-2 0  9997
2 15968 031.1839 174.2717 0043569 223.6247 136.3013 16.34662637012901
Source of the keplerian elements: AFSPC